Terminal Aerodrome Forecast
Issued by NWS Springfield, MO

Home | Current Version | Previous Version | Text Only | Print | Product List | Glossary On
Versions: 1 2 3 4 5 6 7 8 9 10 11 12 13 14 15 16 17 18 19 20 21 22 23
000
FTUS43 KSGF 030600 AAA
TAFSGF
TAF AMD
KSGF 030613Z 0306/0406 VRB03KT P6SM OVC007
      TEMPO 0306/0308 6SM BR SCT015
     FM030800 VRB03KT 6SM BR VCTS SCT007 SCT015 OVC060CB
      TEMPO 0309/0313 4SM BR OVC007
     FM031500 01007KT P6SM BKN020
     FM032000 01007KT P6SM BKN040
     FM040000 03004KT P6SM SKC=

USA.gov is the U.S. government's official web portal to all federal, state and local government web resources and services.